Volver al catálogo

FENGYUN 1C DEB

ActivoSSO
NORAD 31371·DEBRIS·🇨🇳 China

Lanzado May 10, 1999 desde Taiyuan Satellite Launch Center

Loading…

Próximos Pases (próximas 24 horas)

TLE

ActualizadoSource: Space-Track

Época: Sep 13, 2026, 08:14 UTC

1 31371U 99025BSB 26256.34331311  .00000594  00000-0  38384-3 0  9997
2 31371  98.7428 284.6395 0077691 195.4104 164.4698 14.05099059996022

Sigue FENGYUN 1C DEB en tiempo real con AllMySat

Download on the App Store